Weather History for LGRP - May, 2013

Change the Weather History Date:

Tuesday, May 14, 2013

  Actual Average Record
Temperature  
Mean Temperature 63 °F -  
Max Temperature 69 °F 79 °F 80 °F (2003)
Min Temperature 57 °F 64 °F 57 °F (2013)
Degree Days  
Heating Degree Days 2    
Growing Degree Days 13 (Base 50)    
Moisture  
Dew Point 59 °F    
Average Humidity 82    
Maximum Humidity 100    
Minimum Humidity 62    
Precipitation  
Precipitation 0.00 in 0.01 in - ()
Sea Level Pressure  
Sea Level Pressure 29.69 in    
Wind  
Wind Speed 7 mph ()    
Max Wind Speed 15 mph    
Max Gust Speed 23 mph    
Visibility 6.0 miles    
Events Rain , Thunderstorm    
Averages and records for this station are not official NWS values.
T = Trace of Precipitation, MM = Missing Value Source: Averaged Metar Reports

Daily Weather History Graph

Daily Weather History Graph

Search for Another Location

Airport or City:

Trip Planner

Search our weather history database for the weather conditions in past years. The results will help you decide how hot, cold, wet, or windy it might be!

Date:

Astronomy

May. 14, 2013 Rise Set
Actual Time 6:01 AM EEST 8:06 PM EEST
Civil Twilight 5:33 AM EEST 8:35 PM EEST
Nautical Twilight 4:58 AM EEST 9:10 PM EEST
Astronomical Twilight 4:20 AM EEST 9:48 PM EEST
Moon 9:23 AM EEST (5/14) 11:42 PM EEST (5/14)
Length of Visible Light 15h 02m
Length of Day
14h 04m
Waxing Crescent, 16% of the Moon is Illuminated
May 14
Waxing Crescent
May 18
First Quarter
May 25
Full
May 31
Last Quarter
Jun 8
New

Hourly Weather History & Observations

Time (EEST) Temp. Dew Point Humidity Pressure Visibility Wind Dir Wind Speed Gust Speed Precip Events Conditions
12:20 AM 62.6 °F 60.8 °F 94% 29.68 in 6.2 mi East 9.2 mph - N/A Rain , Thunderstorm Light Thunderstorms and Rain
12:50 AM 60.8 °F 59.0 °F 94% 29.68 in 5.6 mi ESE 11.5 mph 23.0 mph N/A Thunderstorm Thunderstorm
1:20 AM 60.8 °F 59.0 °F 94% 29.68 in 5.6 mi SE 11.5 mph 23.0 mph N/A Thunderstorm Thunderstorm
1:50 AM 60.8 °F 59.0 °F 94% 29.68 in 6.2 mi South 6.9 mph - N/A Thunderstorm Thunderstorm
2:20 AM 60.8 °F 59.0 °F 94% 29.68 in 6.2 mi SW 8.1 mph - N/A Thunderstorm Thunderstorm
3:50 AM 59.0 °F 57.2 °F 94% 29.62 in 6.2 mi South 6.9 mph - N/A Rain Light Rain
5:20 AM 59.0 °F 57.2 °F 94% 29.62 in 6.2 mi Variable 3.5 mph - N/A Rain Light Rain
5:50 AM 59.0 °F 57.2 °F 94% 29.65 in 6.2 mi Variable 2.3 mph - N/A   Mostly Cloudy
6:20 AM 59.0 °F 57.2 °F 94% 29.65 in 3.1 mi WSW 15.0 mph - N/A Rain , Thunderstorm Thunderstorms and Rain
6:50 AM 59.0 °F 57.2 °F 94% 29.65 in 5.0 mi Variable 2.3 mph - N/A Rain Light Rain
7:20 AM 59.0 °F 57.2 °F 94% 29.65 in 5.0 mi Variable 2.3 mph - N/A Rain Light Rain
7:50 AM 57.2 °F 57.2 °F 100% 29.65 in 6.2 mi Variable 2.3 mph - N/A   Mostly Cloudy
8:20 AM 59.0 °F 57.2 °F 94% 29.65 in 6.2 mi Variable 3.5 mph - N/A   Mostly Cloudy
8:50 AM 60.8 °F 57.2 °F 88% 29.68 in 6.2 mi Variable 3.5 mph - N/A   Mostly Cloudy
9:00 AM 60 °F 57 °F 85% 29.68 in 6 mi 3.5 mph - -   Partly Cloudy
9:20 AM 62.6 °F 57.2 °F 82% 29.68 in 6.2 mi West 4.6 mph - N/A   Mostly Cloudy
9:50 AM 64.4 °F 53.6 °F 68% 29.68 in 6.2 mi West 4.6 mph - N/A   Mostly Cloudy
10:20 AM 64.4 °F 53.6 °F 68% 29.68 in 6.2 mi West 5.8 mph - N/A   Mostly Cloudy
10:50 AM 64.4 °F 53.6 °F 68% 29.68 in 6.2 mi West 8.1 mph - N/A   Mostly Cloudy
11:20 AM 64.4 °F 53.6 °F 68% 29.68 in 6.2 mi West 8.1 mph - N/A   Mostly Cloudy
11:50 AM 66.2 °F 53.6 °F 64% 29.71 in 6.2 mi WSW 9.2 mph - N/A   Mostly Cloudy
12:20 PM 66.2 °F 53.6 °F 64% 29.71 in 6.2 mi WSW 10.4 mph - N/A   Scattered Clouds
12:50 PM 66.2 °F 57.2 °F 73% 29.71 in 6.2 mi West 10.4 mph - N/A   Scattered Clouds
1:20 PM 66.2 °F 57.2 °F 73% 29.71 in 6.2 mi West 9.2 mph - N/A   Scattered Clouds
1:50 PM 68.0 °F 57.2 °F 68% 29.68 in 6.2 mi WSW 11.5 mph - N/A   Scattered Clouds
2:20 PM 68.0 °F 57.2 °F 68% 29.68 in 6.2 mi West 12.7 mph - N/A   Scattered Clouds
2:50 PM 68.0 °F 57.2 °F 68% 29.68 in 6.2 mi WSW 12.7 mph - N/A   Scattered Clouds
3:00 PM 68 °F 58 °F 62% 29.70 in 6 mi WSW 12.7 mph - -   Scattered Clouds
3:20 PM 69.8 °F 59.0 °F 68% 29.68 in 6.2 mi West 11.5 mph - N/A   Scattered Clouds
3:50 PM 69.8 °F 59.0 °F 68% 29.68 in 6.2 mi West 11.5 mph - N/A   Scattered Clouds
4:20 PM 69.8 °F 59.0 °F 68% 29.68 in 6.2 mi West 10.4 mph - N/A   Scattered Clouds
4:50 PM 69.8 °F 60.8 °F 73% 29.68 in 6.2 mi West 10.4 mph - N/A   Scattered Clouds
5:20 PM 69.8 °F 60.8 °F 73% 29.71 in 6.2 mi WSW 10.4 mph - N/A   Scattered Clouds
5:50 PM 69.8 °F 60.8 °F 73% 29.71 in 6.2 mi West 9.2 mph - N/A   Scattered Clouds
6:20 PM 69.8 °F 60.8 °F 73% 29.71 in 6.2 mi WSW 10.4 mph - N/A   Scattered Clouds
6:50 PM 68.0 °F 62.6 °F 83% 29.71 in 6.2 mi WSW 9.2 mph - N/A   Scattered Clouds
7:20 PM 68.0 °F 62.6 °F 83% 29.71 in 6.2 mi West 8.1 mph - N/A   Scattered Clouds
7:50 PM 66.2 °F 62.6 °F 88% 29.71 in 6.2 mi WSW 6.9 mph - N/A   Mostly Cloudy
8:20 PM 66.2 °F 62.6 °F 88% 29.71 in 6.2 mi WSW 4.6 mph - N/A   Mostly Cloudy
8:50 PM 66.2 °F 64.4 °F 94% 29.71 in 6.2 mi WSW 5.8 mph - N/A   Mostly Cloudy
9:00 PM 66 °F 64 °F 90% 29.73 in 6 mi WSW 5.8 mph - -   Partly Cloudy
9:20 PM 66.2 °F 64.4 °F 94% 29.71 in 6.2 mi Variable 3.5 mph - N/A   Mostly Cloudy
9:50 PM 64.4 °F 60.8 °F 88% 29.74 in 6.2 mi Variable 1.2 mph - N/A   Mostly Cloudy
10:20 PM 64.4 °F 60.8 °F 88% 29.74 in 6.2 mi Variable 2.3 mph - N/A   Mostly Cloudy
11:20 PM 62.6 °F 59.0 °F 88% 29.74 in 6.2 mi Calm Calm - N/A   Scattered Clouds
11:50 PM 62.6 °F 59.0 °F 88% 29.74 in 6.2 mi Variable 1.2 mph - N/A   Scattered Clouds